Change the Weather History Date:

Tuesday, January 1, 2013

  Actual Average Record
Temperature  
Mean Temperature 32 °F -  
Max Temperature 36 °F 40 °F 68 °F (1965)
Min Temperature 26 °F 24 °F -3 °F (1968)
Degree Days  
Heating Degree Days 34    
Moisture  
Dew Point 32 °F    
Average Humidity 94    
Maximum Humidity 100    
Minimum Humidity 81    
Precipitation  
Precipitation 0.00 in - - ()
Sea Level Pressure  
Sea Level Pressure 30.12 in    
Wind  
Wind Speed 5 mph (North)    
Max Wind Speed 13 mph    
Max Gust Speed -    
Visibility 5 miles    
Events      
Averages and records for this station are not official NWS values.
T = Trace of Precipitation, MM = Missing Value Source: NWS Daily Summary

Daily Weather History Graph

Daily Weather History Graph

Search for Another Location

Airport or City:

Trip Planner

Search our weather history database for the weather conditions in past years. The results will help you decide how hot, cold, wet, or windy it might be!

Date:

Astronomy

Jan. 01, 2013 Rise Set
Actual Time 7:04 AM CST 4:40 PM CST
Civil Twilight 6:34 AM CST 5:10 PM CST
Nautical Twilight 6:02 AM CST 5:42 PM CST
Astronomical Twilight 5:30 AM CST 6:14 PM CST
Moon 9:06 PM CST (1/1) 9:20 AM CST (1/1)
Length of Visible Light 10h 35m
Length of Day
9h 36m
Waning Gibbous, 83% of the Moon is Illuminated
Jan 1
Waning Gibbous
Jan 4
Last Quarter
Jan 11
New
Jan 18
First Quarter
Jan 26
Full

Hourly Weather History & Observations

Time (CST) Temp. Windchill Dew Point Humidity Pressure Visibility Wind Dir Wind Speed Gust Speed Precip Events Conditions
12:29 AM 35.6 °F - 35.6 °F 100% 30.08 in 1.2 mi Calm Calm - N/A   Overcast
12:41 AM 35.6 °F - 35.6 °F 100% 30.07 in 1.5 mi Calm Calm - N/A   Mostly Cloudy
12:56 AM 36.0 °F - 36.0 °F 100% 30.09 in 1.8 mi Calm Calm - N/A   Mostly Cloudy
1:11 AM 35.6 °F - 35.6 °F 100% 30.07 in 2.5 mi Calm Calm - N/A   Overcast
1:26 AM 35.6 °F - 35.6 °F 100% 30.07 in 3.0 mi Calm Calm - N/A   Overcast
1:42 AM 35.6 °F - 35.6 °F 100% 30.07 in 2.5 mi Calm Calm - N/A   Overcast
1:56 AM 36.0 °F - 36.0 °F 100% 30.08 in 3.0 mi Calm Calm - N/A   Overcast
2:31 AM 35.6 °F - 35.6 °F 100% 30.07 in 2.5 mi Calm Calm - N/A   Overcast
3:56 AM 36.0 °F 32.1 °F 36.0 °F 100% 30.09 in 4.0 mi NNW 4.6 mph - N/A   Overcast
4:16 AM 35.6 °F 29.9 °F 35.6 °F 100% 30.07 in 3.0 mi NNW 6.9 mph - N/A   Overcast
4:31 AM 35.6 °F 29.2 °F 35.6 °F 100% 30.08 in 1.8 mi North 8.1 mph - N/A   Overcast
4:45 AM 35.6 °F 29.9 °F 35.6 °F 100% 30.09 in 3.0 mi North 6.9 mph - N/A   Overcast
4:56 AM 34.9 °F 27.7 °F 34.9 °F 100% 30.11 in 3.0 mi North 9.2 mph - N/A   Overcast
5:05 AM 35.6 °F 28.6 °F 35.6 °F 100% 30.09 in 2.5 mi North 9.2 mph - N/A   Overcast
5:16 AM 35.6 °F 29.9 °F 35.6 °F 100% 30.09 in 4.0 mi North 6.9 mph - N/A   Overcast
5:48 AM 35.6 °F 30.7 °F 33.8 °F 93% 30.10 in 5.0 mi NNE 5.8 mph - N/A   Overcast
5:56 AM 34.9 °F 29.0 °F 34.0 °F 97% 30.11 in 5.0 mi NNE 6.9 mph - N/A   Overcast
6:08 AM 35.6 °F 31.7 °F 33.8 °F 93% 30.10 in 5.0 mi NNE 4.6 mph - N/A   Overcast
6:56 AM 34.9 °F 28.3 °F 32.9 °F 92% 30.11 in 6.0 mi NNE 8.1 mph - N/A   Overcast
7:56 AM 34.0 °F 28.0 °F 32.9 °F 96% 30.12 in 7.0 mi NE 6.9 mph - N/A   Overcast
8:56 AM 34.9 °F 29.9 °F 32.9 °F 92% 30.14 in 8.0 mi North 5.8 mph - N/A   Overcast
9:56 AM 34.9 °F 28.3 °F 32.9 °F 92% 30.14 in 9.0 mi North 8.1 mph - N/A   Overcast
10:56 AM 34.9 °F 28.3 °F 32.0 °F 89% 30.12 in 9.0 mi North 8.1 mph - N/A   Overcast
11:08 AM 35.6 °F 29.9 °F 33.8 °F 93% 30.11 in 9.0 mi North 6.9 mph - N/A   Overcast
11:56 AM 34.9 °F 27.7 °F 32.9 °F 92% 30.14 in 9.0 mi NNW 9.2 mph - N/A   Overcast
12:26 PM 33.8 °F 25.3 °F 33.8 °F 100% 30.13 in 4.0 mi NW 11.5 mph - N/A   Overcast
12:32 PM 33.8 °F 24.8 °F 32.0 °F 93% 30.12 in 2.5 mi NW 12.7 mph - N/A   Overcast
12:37 PM 33.8 °F 24.8 °F 32.0 °F 93% 30.13 in 1.8 mi NW 12.7 mph - N/A   Overcast
1:56 PM 32.0 °F 24.8 °F 29.1 °F 89% 30.10 in 3.0 mi North 8.1 mph - 0.00 in   Overcast
2:56 PM 31.1 °F 23.1 °F 28.0 °F 88% 30.12 in 6.0 mi North 9.2 mph - N/A   Overcast
3:19 PM 30.2 °F 20.8 °F 28.4 °F 93% 30.12 in 6.0 mi NNW 11.5 mph - N/A   Overcast
3:56 PM 31.1 °F 22.4 °F 27.1 °F 85% 30.13 in 4.0 mi NNW 10.4 mph - N/A   Overcast
4:56 PM 30.0 °F 21.1 °F 27.1 °F 89% 30.15 in 4.0 mi NNW 10.4 mph - N/A   Overcast
5:56 PM 30.0 °F 22.4 °F 26.1 °F 85% 30.17 in 5.0 mi NNW 8.1 mph - 0.00 in   Overcast
6:56 PM 29.1 °F 19.4 °F 26.1 °F 88% 30.19 in 5.0 mi NW 11.5 mph - N/A   Overcast
7:56 PM 28.0 °F 17.5 °F 25.2 °F 89% 30.20 in 6.0 mi NNW 12.7 mph - N/A   Overcast
8:56 PM 28.0 °F 18.1 °F 24.1 °F 85% 30.21 in 7.0 mi NNW 11.5 mph - N/A   Overcast
9:56 PM 27.1 °F 18.2 °F 23.0 °F 84% 30.21 in 7.0 mi NW 9.2 mph - N/A   Overcast
10:56 PM 27.1 °F 16.9 °F 22.1 °F 81% 30.23 in 9.0 mi NNW 11.5 mph - N/A   Overcast
11:56 PM 26.1 °F 16.8 °F 21.0 °F 81% 30.23 in 10.0 mi North 9.2 mph - N/A   Overcast